GAF1 KMCO-EDDP

Flight info

Callsign GAF1
Flight time N/A
Altitude 43000
Route JEEMY4 PAINN SHRKS BERTT GURGE RAYVO Q87 NOWAE FAK BOOYA Q34 RBV Q22 LLUND BIZEX Q133 CAM BEEHS JIGZY HULTN N611A SAXAN 5250N 5340N 5330N 5320N MALOT GISTI ENJEX ADHAV AXNEF ZIPWE OZZIL SAWPE L179 ICTAM M197 REDFA TACHA NORTA ADMOS T959 KOJEC
Aircraft A359/H-SDE2E3GHIJ3J4J5LM1ORWXY/LB1D1

Departure

Time 2026-04-25 13:51
Airport Orlando International Airport (KMCO)

Arrival

Time N/A
Airport Leipzig/Halle Airport (EDDP)
Time Latitude Longitude Altitude Speed Heading
2026-04-25 11:03 28.43606 -81.31308 101 ft 0 kts 166°
2026-04-25 11:07 28.43606 -81.31307 102 ft 0 kts 166°
2026-04-25 13:29 28.43620 -81.31311 100 ft 3 kts 169°
2026-04-25 13:29 28.43637 -81.31315 101 ft 3 kts 172°
2026-04-25 13:29 28.43655 -81.31318 102 ft 3 kts 180°
2026-04-25 13:30 28.43689 -81.31307 101 ft 3 kts 236°
2026-04-25 13:30 28.43696 -81.31288 101 ft 2 kts 265°
2026-04-25 13:30 28.43696 -81.31280 100 ft 0 kts 258°
2026-04-25 13:37 28.43699 -81.31268 101 ft 2 kts 258°
2026-04-25 13:37 28.43699 -81.31264 100 ft 0 kts 258°
2026-04-25 13:38 28.43697 -81.31277 100 ft 2 kts 258°
2026-04-25 13:38 28.43692 -81.31302 102 ft 4 kts 258°
2026-04-25 13:38 28.43688 -81.31321 103 ft 2 kts 258°
2026-04-25 13:38 28.43685 -81.31340 101 ft 0 kts 258°
2026-04-25 13:39 28.43685 -81.31379 104 ft 12 kts 277°
2026-04-25 13:39 28.43686 -81.31386 105 ft 0 kts 279°
2026-04-25 13:44 28.43687 -81.31396 103 ft 5 kts 279°
2026-04-25 13:44 28.43700 -81.31470 107 ft 10 kts 282°
2026-04-25 13:44 28.43706 -81.31551 106 ft 11 kts 270°
2026-04-25 13:44 28.43721 -81.31599 107 ft 0 kts 304°
2026-04-25 13:46 28.43732 -81.31613 106 ft 10 kts 314°
2026-04-25 13:46 28.43828 -81.31682 109 ft 15 kts 341°
2026-04-25 13:46 28.43917 -81.31726 109 ft 14 kts 296°
2026-04-25 13:47 28.43927 -81.31856 105 ft 19 kts 281°
2026-04-25 13:47 28.43978 -81.31980 105 ft 15 kts 311°
2026-04-25 13:47 28.44076 -81.32006 105 ft 16 kts 359°
2026-04-25 13:47 28.44194 -81.32007 105 ft 18 kts 360°
2026-04-25 13:48 28.44330 -81.32008 105 ft 21 kts 359°
2026-04-25 13:48 28.44479 -81.32010 107 ft 20 kts 359°
2026-04-25 13:48 28.44610 -81.32012 107 ft 18 kts 359°
2026-04-25 13:48 28.44713 -81.32037 106 ft 12 kts 308°
2026-04-25 13:49 28.44715 -81.32113 106 ft 10 kts 266°
2026-04-25 13:49 28.44712 -81.32203 104 ft 11 kts 260°
2026-04-25 13:49 28.44661 -81.32229 106 ft 1 kts 181°
2026-04-25 13:50 28.44640 -81.32230 105 ft 11 kts 180°
2026-04-25 13:50 28.44435 -81.32229 105 ft 61 kts 179°
2026-04-25 13:50 28.43772 -81.32222 106 ft 128 kts 179°
2026-04-25 13:50 28.42691 -81.32214 236 ft 173 kts 180°
2026-04-25 13:51 28.41487 -81.32201 1034 ft 167 kts 180°
2026-04-25 13:51 28.40368 -81.32278 2017 ft 161 kts 189°
2026-04-25 13:51 28.39215 -81.32612 2404 ft 185 kts 200°
2026-04-25 13:51 28.37950 -81.33260 2639 ft 214 kts 206°
2026-04-25 13:52 28.36522 -81.34085 2907 ft 244 kts 207°
2026-04-25 13:52 28.35046 -81.35139 3512 ft 257 kts 222°
2026-04-25 13:52 28.33822 -81.36651 4283 ft 263 kts 231°
2026-04-25 13:52 28.32989 -81.38502 5054 ft 268 kts 255°
2026-04-25 13:53 28.32648 -81.40573 5884 ft 272 kts 262°
2026-04-25 13:53 28.32402 -81.42714 6564 ft 275 kts 263°
2026-04-25 13:53 28.32159 -81.44880 6913 ft 277 kts 263°
2026-04-25 13:53 28.31912 -81.47050 6995 ft 277 kts 263°
2026-04-25 13:54 28.31821 -81.48493 6994 ft 277 kts 272°
2026-04-25 13:54 28.32322 -81.50583 7002 ft 276 kts 299°
2026-04-25 13:54 28.33560 -81.52229 7004 ft 275 kts 319°
2026-04-25 13:54 28.35053 -81.53572 7189 ft 276 kts 323°
2026-04-25 13:55 28.36619 -81.54863 7799 ft 279 kts 327°
2026-04-25 13:55 28.38420 -81.55648 8851 ft 278 kts 348°
2026-04-25 13:55 28.40340 -81.55950 9883 ft 280 kts 352°
2026-04-25 13:55 28.42312 -81.56162 10523 ft 293 kts 353°
2026-04-25 13:56 28.44417 -81.56376 10905 ft 315 kts 353°
2026-04-25 13:56 28.46641 -81.56606 11254 ft 335 kts 353°
2026-04-25 13:56 28.49029 -81.56856 11759 ft 348 kts 353°
2026-04-25 13:56 28.51460 -81.57110 12516 ft 353 kts 353°
2026-04-25 13:57 28.53911 -81.57355 13304 ft 357 kts 354°
2026-04-25 13:57 28.55603 -81.57354 13831 ft 360 kts
2026-04-25 13:57 28.58889 -81.56545 14651 ft 371 kts 15°
2026-04-25 13:57 28.61348 -81.55578 15245 ft 377 kts 17°
2026-04-25 13:58 28.63844 -81.54547 15756 ft 381 kts 18°
2026-04-25 13:58 28.66345 -81.53501 15964 ft 383 kts 18°
2026-04-25 13:58 28.68850 -81.52449 16032 ft 386 kts 18°
2026-04-25 13:58 28.71385 -81.51383 16517 ft 390 kts 18°
2026-04-25 13:59 28.73939 -81.50307 17228 ft 393 kts 18°
2026-04-25 13:59 28.76514 -81.49221 17889 ft 398 kts 18°
2026-04-25 13:59 28.79100 -81.48130 18500 ft 403 kts 18°
2026-04-25 13:59 28.81770 -81.47002 19123 ft 405 kts 18°
2026-04-25 14:00 28.83522 -81.46261 19565 ft 407 kts 18°
2026-04-25 14:00 28.87062 -81.44764 20432 ft 410 kts 18°
2026-04-25 14:00 28.89750 -81.43627 21081 ft 413 kts 18°
2026-04-25 14:00 28.92463 -81.42482 21748 ft 416 kts 17°
2026-04-25 14:01 28.95254 -81.41630 22379 ft 415 kts
2026-04-25 14:01 28.98138 -81.41582 23067 ft 415 kts 354°
2026-04-25 14:01 29.01021 -81.41882 23684 ft 418 kts 352°
2026-04-25 14:01 29.03930 -81.42221 24208 ft 422 kts 352°
2026-04-25 14:02 29.06833 -81.42555 24744 ft 425 kts 353°
2026-04-25 14:02 29.09791 -81.42890 25273 ft 429 kts 353°
2026-04-25 14:02 29.12778 -81.43204 25798 ft 433 kts 354°
2026-04-25 14:02 29.14773 -81.43391 26141 ft 435 kts 354°
2026-04-25 14:03 29.18842 -81.43767 26833 ft 440 kts 354°
2026-04-25 14:03 29.21873 -81.44051 27337 ft 443 kts 354°
2026-04-25 14:03 29.24954 -81.44341 27843 ft 447 kts 355°
2026-04-25 14:03 29.28072 -81.44636 28360 ft 449 kts 355°
2026-04-25 14:04 29.31201 -81.44933 28908 ft 452 kts 355°
2026-04-25 14:04 29.34350 -81.45232 29384 ft 456 kts 355°
2026-04-25 14:04 29.37525 -81.45534 29856 ft 459 kts 355°
2026-04-25 14:04 29.40726 -81.45839 30261 ft 462 kts 355°
2026-04-25 14:05 29.43944 -81.46146 30641 ft 466 kts 355°
2026-04-25 14:05 29.47192 -81.46456 31007 ft 469 kts 355°
2026-04-25 14:05 29.50458 -81.46768 31356 ft 472 kts 355°
2026-04-25 14:05 29.53745 -81.47083 31696 ft 475 kts 355°
2026-04-25 14:06 29.57001 -81.47395 32024 ft 477 kts 355°
2026-04-25 14:06 29.60326 -81.47709 32354 ft 480 kts 355°
2026-04-25 14:06 29.63665 -81.48010 32652 ft 483 kts 355°
2026-04-25 14:06 29.67014 -81.48310 33046 ft 483 kts 355°
2026-04-25 14:07 29.70362 -81.48612 33496 ft 482 kts 355°
2026-04-25 14:07 29.73702 -81.48914 33917 ft 482 kts 355°
2026-04-25 14:07 29.77042 -81.49217 34279 ft 481 kts 355°
2026-04-25 14:07 29.80372 -81.49519 34678 ft 479 kts 355°
2026-04-25 14:08 29.83698 -81.49821 34927 ft 480 kts 355°
2026-04-25 14:08 29.90286 -81.50820 34973 ft 476 kts 345°
2026-04-25 14:09 29.96655 -81.52930 34970 ft 476 kts 343°
2026-04-25 14:09 30.02980 -81.55232 34968 ft 477 kts 342°
2026-04-25 14:10 30.09311 -81.57540 34972 ft 477 kts 342°
2026-04-25 14:10 30.15599 -81.59807 34972 ft 476 kts 342°
2026-04-25 14:11 30.21910 -81.62071 34974 ft 474 kts 342°
2026-04-25 14:11 30.28219 -81.64336 34984 ft 474 kts 342°
2026-04-25 14:12 30.34524 -81.66603 34997 ft 475 kts 342°
2026-04-25 14:12 30.40845 -81.68881 34959 ft 476 kts 342°
2026-04-25 14:13 30.47179 -81.71165 34962 ft 477 kts 342°
2026-04-25 14:13 30.53517 -81.73454 34963 ft 477 kts 342°
2026-04-25 14:14 30.59885 -81.75588 34965 ft 477 kts 348°
2026-04-25 14:14 30.66500 -81.76064 34968 ft 478 kts
2026-04-25 14:15 30.73095 -81.75386 34960 ft 479 kts
2026-04-25 14:15 30.79726 -81.74523 34961 ft 478 kts
2026-04-25 14:16 30.86348 -81.73656 34952 ft 478 kts
2026-04-25 14:16 30.92966 -81.72816 34957 ft 478 kts
2026-04-25 14:17 30.99548 -81.71991 34956 ft 478 kts
2026-04-25 14:17 31.06173 -81.71161 34954 ft 478 kts
2026-04-25 14:18 31.12790 -81.70331 34952 ft 478 kts
2026-04-25 14:18 31.19317 -81.68842 34956 ft 480 kts 14°
2026-04-25 14:19 31.25724 -81.66606 34953 ft 480 kts 15°
2026-04-25 14:19 31.32102 -81.64258 34954 ft 480 kts 16°
2026-04-25 14:20 31.38467 -81.61907 34949 ft 479 kts 16°
2026-04-25 14:20 31.44827 -81.59569 34955 ft 479 kts 15°
2026-04-25 14:21 31.51189 -81.57236 34952 ft 479 kts 15°
2026-04-25 14:21 31.57523 -81.54911 34949 ft 480 kts 15°
2026-04-25 14:22 31.63901 -81.52565 34946 ft 480 kts 16°
2026-04-25 14:22 31.70284 -81.50214 34944 ft 480 kts 16°
2026-04-25 14:23 31.76624 -81.47874 34940 ft 480 kts 16°
2026-04-25 14:23 31.83016 -81.45513 34944 ft 481 kts 16°
2026-04-25 14:24 31.89416 -81.43145 34944 ft 482 kts 16°
2026-04-25 14:24 31.95810 -81.40776 34939 ft 482 kts 16°
2026-04-25 14:25 32.01128 -81.38803 34940 ft 482 kts 16°
2026-04-25 14:25 32.08565 -81.36039 34948 ft 482 kts 16°
2026-04-25 14:26 32.14970 -81.33656 34948 ft 483 kts 16°
2026-04-25 14:26 32.21380 -81.31267 34947 ft 483 kts 16°
2026-04-25 14:27 32.27792 -81.28873 34946 ft 483 kts 16°
2026-04-25 14:27 32.34196 -81.26479 34943 ft 481 kts 16°
2026-04-25 14:28 32.40575 -81.24091 34929 ft 481 kts 16°
2026-04-25 14:28 32.46882 -81.21429 34927 ft 482 kts 24°
2026-04-25 14:29 32.52520 -81.17162 34925 ft 485 kts 36°
2026-04-25 14:29 32.57794 -81.12157 34930 ft 487 kts 37°
2026-04-25 14:30 32.63027 -81.07019 34925 ft 489 kts 38°
2026-04-25 14:30 32.70895 -80.99310 34930 ft 489 kts 37°
2026-04-25 14:31 32.76153 -80.94178 34930 ft 489 kts 37°
2026-04-25 14:31 32.81413 -80.89041 34942 ft 488 kts 38°
2026-04-25 14:32 32.86651 -80.83916 34946 ft 488 kts 38°
2026-04-25 14:32 32.91903 -80.78770 34949 ft 489 kts 38°
2026-04-25 14:33 32.97120 -80.73649 34954 ft 489 kts 38°
2026-04-25 14:33 33.02372 -80.68485 34951 ft 489 kts 38°
2026-04-25 14:34 33.07623 -80.63314 34925 ft 489 kts 38°
2026-04-25 14:34 33.12863 -80.58146 34924 ft 489 kts 38°
2026-04-25 14:35 33.18120 -80.52949 34927 ft 489 kts 38°
2026-04-25 14:35 33.23355 -80.47775 34923 ft 487 kts 38°
2026-04-25 14:36 33.28554 -80.42641 34926 ft 487 kts 38°
2026-04-25 14:36 33.33782 -80.37464 34926 ft 487 kts 36°
2026-04-25 14:37 33.39095 -80.32420 34929 ft 488 kts 37°
2026-04-25 14:37 33.44291 -80.27223 34936 ft 489 kts 39°
2026-04-25 14:38 33.49446 -80.21915 34943 ft 489 kts 39°
2026-04-25 14:38 33.54639 -80.16643 34946 ft 488 kts 39°
2026-04-25 14:39 33.59849 -80.11414 34948 ft 488 kts 39°
2026-04-25 14:39 33.64279 -80.07227 34938 ft 487 kts 32°
2026-04-25 14:40 33.70179 -80.03256 34938 ft 486 kts 26°
2026-04-25 14:40 33.76216 -79.99561 34911 ft 486 kts 26°
2026-04-25 14:41 33.82269 -79.95909 34915 ft 487 kts 26°
2026-04-25 14:41 33.88279 -79.92263 34915 ft 487 kts 26°
2026-04-25 14:42 33.93350 -79.89169 34917 ft 488 kts 26°
2026-04-25 14:42 34.00375 -79.84870 34932 ft 488 kts 26°
2026-04-25 14:43 34.06432 -79.81155 34934 ft 488 kts 26°
2026-04-25 14:43 34.12490 -79.77437 34936 ft 488 kts 26°
2026-04-25 14:44 34.18523 -79.73729 34927 ft 489 kts 26°
2026-04-25 14:44 34.24589 -79.69993 34930 ft 489 kts 26°
2026-04-25 14:45 34.30649 -79.66253 34925 ft 489 kts 26°
2026-04-25 14:45 34.36720 -79.62501 34908 ft 490 kts 26°
2026-04-25 14:46 34.42794 -79.58742 34912 ft 490 kts 26°
2026-04-25 14:46 34.48831 -79.54998 34907 ft 490 kts 26°
2026-04-25 14:47 34.53915 -79.51841 34907 ft 490 kts 26°
2026-04-25 14:47 34.60933 -79.47322 34910 ft 492 kts 28°
2026-04-25 14:48 34.66915 -79.43228 34917 ft 493 kts 28°
2026-04-25 14:48 34.72887 -79.39147 34927 ft 492 kts 28°
2026-04-25 14:49 34.78860 -79.35089 34931 ft 491 kts 28°
2026-04-25 14:49 34.84844 -79.31030 34932 ft 493 kts 27°
2026-04-25 14:50 34.90803 -79.26987 34921 ft 493 kts 28°
2026-04-25 14:50 34.94822 -79.24255 34906 ft 493 kts 28°